Regional Weather Roundup
Issued by NWS

Home | Current Version | Previous Version | Graphics & Text | Print | Product List | Glossary On
Versions: 1 2 3 4 5 6 7 8 9 10 11 12 13 14 15 16 17 18 19 20 21 22 23 24 25 26 27 28 29 30 31 32 33 34 35 36 37 38 39 40 41 42 43 44 45 46 47 48 49 50
000
ASUS43 KLSX 282259
RWRMO

WEATHER SUMMARY FOR MISSOURI
NATIONAL WEATHER SERVICE SPRINGFIELD MO
500 PM CST FRI NOV 28 2014

NOTE: "FAIR" INDICATES FEW OR NO CLOUDS BELOW 12,000 FEET WITH NO
       SIGNIFICANT WEATHER AND/OR OBSTRUCTIONS TO VISIBILITY.
       CURRENT SKY AND/OR WEATHER CONDITIONS ARE NOT AVAILABLE FOR
       CHILLICOTHE AND FARMINGTON.

MOZ001>031-035>038-043-044-053-054-290000-
...NORTHERN AND WESTERN MISSOURI...

CITY           SKY/WX    TMP DP  RH WIND       PRES   REMARKS
KANSAS CTY INT MOCLDY    50  34  54 S10       29.79S
KANSAS C DTWN  PTCLDY    56  33  42 S8        29.80S
LEE`S SUMMIT   PTCLDY    55  33  43 S12       29.82R
ST JOSEPH      PTCLDY    50  33  52 SE6       29.76F
CHILLICOTHE      N/A     48  34  58 S3        29.81F
KIRKSVILLE     PTCLDY    41  33  73 SE7       29.82F

$$
MOZ066>068-077>081-088>096-101>105-290000-
...SOUTHWEST MISSOURI...

CITY           SKY/WX    TMP DP  RH WIND       PRES   REMARKS
SPRINGFIELD    CLEAR     57  34  41 S16       29.89F
JOPLIN         CLEAR     60  36  40 S16       29.87F

$$
MOZ032>034-039>042-045>050-055>058-069>072-290000-
...CENTRAL MISSOURI...

CITY           SKY/WX    TMP DP  RH WIND       PRES   REMARKS
COLUMBIA       MOCLDY    53  34  48 S10       29.85F
JEFFERSON CITY MOCLDY    55  33  43 SE7       29.87S
ROLLA          PTCLDY    50  33  52 S12       29.89F
SEDALIA        PTCLDY    54  34  46 S8        29.84F
OSAGE BEACH    MOCLDY    57  34  41 S8        29.87S

$$
MOZ051-052-059>065-290000-
...EAST CENTRAL MISSOURI...

CITY           SKY/WX    TMP DP  RH WIND       PRES   REMARKS
ST LOUIS INTL  MOCLDY    50  33  52 SE10      29.93F
SPIRIT OF STL  MOCLDY    50  32  50 S7        29.91F
ST CHARLES     MOCLDY    42  35  76 SE9       29.92F

$$
MOZ072>076-082>087-097>100-106>115-290000-
...SOUTH CENTRAL AND SOUTHEAST MISSOURI...

CITY           SKY/WX    TMP DP  RH WIND       PRES   REMARKS
CAPE GIRARDEAU CLEAR     46  32  58 S13       30.07F
FARMINGTON     PTCLDY    45  32  61 S13G21    29.99F
POPLAR BLUFF   CLEAR     46  33  60 S9        30.06F
WEST PLAINS    CLEAR     50  32  50 S13G22    29.99F

$$



USA.gov is the U.S. government's official web portal to all federal, state and local government web resources and services.